Change the Weather History Date:

Sunday, January 6, 2013

  Actual Average (KPKB) Record (KPKB)
Temperature  
Mean Temperature 35 °F 32 °F  
Max Temperature 41 °F 40 °F 74 °F (1946)
Min Temperature 29 °F 24 °F -3 °F (1942)
Degree Days  
Heating Degree Days 30 33  
Month to date heating degree days 198  
Cooling Degree Days 0 0  
Month to date cooling degree days 0  
Year to date cooling degree days 0  
Moisture  
Dew Point 27 °F    
Average Humidity 72    
Maximum Humidity 88    
Minimum Humidity 63    
Precipitation  
Precipitation 0.00 in 0.09 in 0.78 in (2009)
Sea Level Pressure  
Sea Level Pressure 30.12 in    
Wind  
Wind Speed 5 mph (SW)    
Max Wind Speed 16 mph    
Max Gust Speed 28 mph    
Visibility 10 miles    
Events Rain    
T = Trace of Precipitation, MM = Missing Value Source: NWS Daily Summary

Daily Weather History Graph

Daily Weather History Graph

Search for Another Location

Airport or City:

Trip Planner

Search our weather history database for the weather conditions in past years. The results will help you decide how hot, cold, wet, or windy it might be!

Date:

Astronomy

Jan. 06, 2013 Rise Set
Actual Time 7:48 AM EST 5:21 PM EST
Civil Twilight 7:18 AM EST 5:51 PM EST
Nautical Twilight 6:45 AM EST 6:24 PM EST
Astronomical Twilight 6:13 AM EST 6:56 PM EST
Moon 2:02 AM EST 12:47 PM EST
Length of Visible Light 10h 32m
Length of Day
9h 32m
Waning Crescent, 33% of the Moon is Illuminated
Jan 6
Waning Crescent
Jan 11
New
Jan 18
First Quarter
Jan 26
Full
Feb 3
Last Quarter

Hourly Weather History & Observations

Time (EST) Temp. Windchill Dew Point Humidity Pressure Visibility Wind Dir Wind Speed Gust Speed Precip Events Conditions
12:15 AM 36.0 °F 33.3 °F 25.5 °F 66% 30.17 in 10.0 mi SSW 3.5 mph - N/A   Overcast
12:35 AM 35.4 °F 31.5 °F 25.5 °F 67% 30.17 in 10.0 mi SSW 4.6 mph - N/A   Overcast
12:55 AM 35.6 °F 31.7 °F 25.7 °F 67% 30.16 in 10.0 mi SSW 4.6 mph - N/A   Overcast
1:15 AM 35.6 °F 32.8 °F 25.7 °F 67% 30.15 in 10.0 mi SSW 3.5 mph - N/A   Overcast
1:35 AM 35.6 °F 32.8 °F 25.3 °F 66% 30.15 in 10.0 mi SSW 3.5 mph - N/A   Overcast
2:15 AM 35.1 °F 32.2 °F 26.1 °F 70% 30.15 in 10.0 mi SSW 3.5 mph - N/A   Overcast
2:35 AM 36.3 °F 33.7 °F 25.5 °F 65% 30.15 in 10.0 mi SW 3.5 mph - N/A   Overcast
2:55 AM 36.5 °F 33.9 °F 25.3 °F 64% 30.14 in 10.0 mi SSW 3.5 mph - N/A   Overcast
3:15 AM 35.2 °F - 25.3 °F 67% 30.14 in 10.0 mi Calm Calm - N/A   Mostly Cloudy
3:35 AM 32.5 °F - 25.7 °F 76% 30.13 in 10.0 mi Calm Calm - N/A   Mostly Cloudy
3:55 AM 31.8 °F - 25.7 °F 78% 30.13 in 10.0 mi Calm Calm - N/A   Scattered Clouds
4:15 AM 30.2 °F - 25.5 °F 83% 30.12 in 10.0 mi Calm Calm - N/A   Mostly Cloudy
4:35 AM 29.8 °F - 25.3 °F 83% 30.11 in 10.0 mi Calm Calm - N/A   Scattered Clouds
4:55 AM 30.9 °F 27.5 °F 25.2 °F 79% 30.11 in 10.0 mi South 3.5 mph - N/A   Clear
5:15 AM 32.0 °F 28.7 °F 24.8 °F 75% 30.10 in 10.0 mi South 3.5 mph - N/A   Clear
5:55 AM 31.8 °F 28.5 °F 26.2 °F 80% 30.09 in 10.0 mi South 3.5 mph - N/A   Overcast
6:15 AM 33.1 °F - 26.4 °F 77% 30.09 in 10.0 mi Calm Calm - N/A   Overcast
6:35 AM 33.8 °F 29.6 °F 26.4 °F 74% 30.09 in 10.0 mi South 4.6 mph - N/A   Overcast
6:55 AM 33.8 °F 29.6 °F 26.4 °F 74% 30.09 in 10.0 mi South 4.6 mph - N/A   Overcast
7:15 AM 34.0 °F 29.8 °F 26.4 °F 74% 30.09 in 10.0 mi South 4.6 mph - N/A   Overcast
7:35 AM 34.0 °F 29.8 °F 26.6 °F 74% 30.09 in 10.0 mi South 4.6 mph - N/A   Overcast
7:55 AM 34.7 °F 29.6 °F 26.6 °F 72% 30.09 in 10.0 mi South 5.8 mph - N/A   Overcast
8:15 AM 34.9 °F 30.8 °F 26.6 °F 72% 30.09 in 10.0 mi SSW 4.6 mph - N/A   Overcast
8:35 AM 35.2 °F 31.2 °F 26.6 °F 71% 30.09 in 10.0 mi SSW 4.6 mph - N/A   Overcast
9:15 AM 36.1 °F 32.3 °F 26.8 °F 69% 30.10 in 10.0 mi SSW 4.6 mph - N/A   Overcast
9:55 AM 37.4 °F 33.8 °F 27.0 °F 66% 30.10 in 10.0 mi SSW 4.6 mph - N/A   Overcast
10:15 AM 37.4 °F 33.8 °F 27.3 °F 67% 30.11 in 10.0 mi SSW 4.6 mph - N/A   Overcast
10:35 AM 37.6 °F 34.0 °F 27.3 °F 66% 30.10 in 10.0 mi SSW 4.6 mph - N/A   Overcast
11:15 AM 38.5 °F 32.7 °F 28.0 °F 66% 30.10 in 10.0 mi SW 8.1 mph - N/A   Overcast
11:35 AM 39.2 °F 34.2 °F 28.0 °F 64% 30.09 in 10.0 mi SSW 6.9 mph - N/A   Overcast
11:55 AM 39.4 °F 34.5 °F 28.4 °F 65% 30.07 in 10.0 mi SW 6.9 mph - N/A   Overcast
12:15 PM 39.9 °F 35.1 °F 28.8 °F 64% 30.06 in 10.0 mi SSW 6.9 mph - N/A   Overcast
12:35 PM 40.1 °F 34.7 °F 28.8 °F 64% 30.05 in 10.0 mi SW 8.1 mph - N/A   Overcast
12:55 PM 40.3 °F 34.4 °F 29.1 °F 64% 30.04 in 10.0 mi SW 9.2 mph - N/A   Overcast
1:15 PM 40.6 °F 34.3 °F 29.1 °F 64% 30.03 in 10.0 mi SW 10.4 mph - N/A   Overcast
1:35 PM 41.0 °F 35.2 °F 29.3 °F 63% 30.03 in 10.0 mi SW 9.2 mph - N/A   Overcast
2:15 PM 40.6 °F 34.3 °F 29.3 °F 64% 30.02 in 10.0 mi SW 10.4 mph - N/A   Overcast
2:35 PM 40.6 °F 36.0 °F 29.3 °F 64% 30.02 in 10.0 mi SW 6.9 mph - N/A   Overcast
2:55 PM 40.8 °F 36.2 °F 29.5 °F 64% 30.03 in 10.0 mi SSW 6.9 mph - N/A   Overcast
3:15 PM 40.5 °F 37.3 °F 29.7 °F 65% 30.03 in 10.0 mi SSW 4.6 mph - N/A   Overcast
3:35 PM 40.6 °F 36.7 °F 29.7 °F 65% 30.03 in 10.0 mi SSW 5.8 mph - N/A   Overcast
3:55 PM 40.6 °F 36.7 °F 29.8 °F 65% 30.04 in 10.0 mi SW 5.8 mph - N/A   Overcast
4:15 PM 40.3 °F 37.1 °F 30.4 °F 68% 30.04 in 10.0 mi SSW 4.6 mph - N/A   Light Drizzle
4:35 PM 39.6 °F 34.7 °F 31.1 °F 72% 30.06 in 10.0 mi WSW 6.9 mph - N/A   Light Drizzle
4:55 PM 39.6 °F 33.0 °F 31.5 °F 73% 30.06 in 10.0 mi WSW 10.4 mph 16.1 mph N/A Rain Light Rain
5:15 PM 38.1 °F 29.5 °F 32.0 °F 79% 30.07 in 10.0 mi WSW 15.0 mph - N/A Rain Light Rain
5:35 PM 36.1 °F 28.7 °F 32.2 °F 86% 30.09 in 7.0 mi West 10.4 mph 24.2 mph N/A Rain Light Rain
5:55 PM 35.8 °F 30.1 °F 32.4 °F 87% 30.10 in 10.0 mi West 6.9 mph - N/A   Light Drizzle
6:15 PM 35.8 °F 30.1 °F 32.4 °F 87% 30.11 in 10.0 mi West 6.9 mph - N/A   Overcast
6:35 PM 35.8 °F 27.3 °F 32.5 °F 88% 30.13 in 10.0 mi West 12.7 mph 20.7 mph N/A   Overcast
6:55 PM 34.2 °F 24.4 °F 29.3 °F 82% 30.15 in 10.0 mi West 15.0 mph 27.6 mph N/A   Overcast
7:15 PM 33.3 °F 24.6 °F 29.3 °F 85% 30.17 in 10.0 mi West 11.5 mph 17.3 mph N/A   Overcast
7:35 PM 33.1 °F 23.4 °F 28.8 °F 84% 30.18 in 10.0 mi West 13.8 mph 20.7 mph N/A   Overcast
7:55 PM 32.0 °F 21.2 °F 27.0 °F 82% 30.19 in 10.0 mi WNW 16.1 mph - N/A   Overcast
8:35 PM 31.6 °F 21.2 °F 24.8 °F 76% 30.21 in 10.0 mi West 15.0 mph 20.7 mph N/A   Overcast
9:15 PM 31.1 °F 21.9 °F 24.6 °F 77% 30.23 in 10.0 mi West 11.5 mph - N/A   Overcast
9:35 PM 30.9 °F 22.8 °F 24.1 °F 76% 30.24 in 10.0 mi WNW 9.2 mph - N/A   Overcast
9:55 PM 30.6 °F 20.7 °F 23.4 °F 75% 30.25 in 10.0 mi West 12.7 mph - N/A   Overcast
10:15 PM 30.2 °F 19.8 °F 22.6 °F 73% 30.26 in 10.0 mi WNW 13.8 mph - N/A   Overcast
10:55 PM 30.0 °F 22.4 °F 22.8 °F 75% 30.28 in 10.0 mi West 8.1 mph - N/A   Overcast
11:15 PM 29.5 °F 19.3 °F 23.0 °F 77% 30.29 in 7.0 mi West 12.7 mph - N/A   Overcast
11:35 PM 29.1 °F 21.3 °F 22.8 °F 77% 30.31 in 7.0 mi WNW 8.1 mph - N/A   Overcast
11:55 PM 29.1 °F 20.6 °F 23.2 °F 78% 30.32 in 7.0 mi NW 9.2 mph - N/A   Overcast